Erie, CO

4:50 AM MDT on March 26, 2017 (GMT -0600)
Erie Municipal Airport

Weather History for KEIK - January, 2014

Change the Weather History Date:

Monday, January 27, 2014

  Actual Average (KBJC) Record (KBJC)
Temperature  
Mean Temperature 14 °F -  
Max Temperature 21 °F 44 °F 71 °F (2015)
Min Temperature 6 °F 25 °F -2 °F (2009)
Degree Days  
Heating Degree Days 52    
Moisture  
Dew Point 13 °F    
Average Humidity 85    
Maximum Humidity 93    
Minimum Humidity 71    
Precipitation  
Precipitation 0.00 in - - ()
Sea Level Pressure  
Sea Level Pressure 30.10 in    
Wind  
Wind Speed 5 mph (NE)    
Max Wind Speed 10 mph    
Max Gust Speed -    
Visibility 5 miles    
Events Snow    
Averages and records for this station are not official NWS values.
T = Trace of Precipitation, MM = Missing Value Source: NWS Daily Summary

Daily Weather History Graph

Daily Weather History Graph

Search for Another Location

Airport or City:

Trip Planner

Search our weather history database for the weather conditions in past years. The results will help you decide how hot, cold, wet, or windy it might be!

Date:

Astronomy

Jan. 27, 2014 Rise Set
Actual Time 7:12 AM MST 5:13 PM MST
Civil Twilight 6:44 AM MST 5:42 PM MST
Nautical Twilight 6:11 AM MST 6:15 PM MST
Astronomical Twilight 5:39 AM MST 6:47 PM MST
Moon 3:56 AM MST (1/27) 2:02 PM MST (1/27)
Length of Visible Light 10h 58m
Length of Day
10h 00m
Waning Crescent, 14% of the Moon is Illuminated
Jan 27
Waning Crescent
Jan 30
New
Feb 6
First Quarter
Feb 14
Full
Feb 22
Last Quarter

Hourly Weather History & Observations

Time (MST) Temp. Windchill Dew Point Humidity Pressure Visibility Wind Dir Wind Speed Gust Speed Precip Events Conditions
12:14 AM 18.9 °F 9.8 °F 11.3 °F 72% 30.15 in 10.0 mi NE 6.9 mph - N/A Snow Light Snow
12:34 AM 18.7 °F 8.6 °F 10.8 °F 71% 30.14 in 10.0 mi ENE 8.1 mph - N/A   Overcast
12:54 AM 18.3 °F 8.2 °F 10.4 °F 71% 30.14 in 10.0 mi ENE 8.1 mph - N/A   Overcast
1:14 AM 18.3 °F 8.2 °F 10.6 °F 72% 30.15 in 10.0 mi ENE 8.1 mph - N/A   Overcast
1:33 AM 18.3 °F 7.3 °F 10.4 °F 71% 30.16 in 10.0 mi NE 9.2 mph - N/A   Overcast
1:54 AM 17.6 °F 9.3 °F 11.3 °F 76% 30.15 in 7.0 mi ENE 5.8 mph - N/A   Overcast
2:14 AM 17.6 °F 10.7 °F 11.1 °F 76% 30.15 in 10.0 mi East 4.6 mph - N/A   Overcast
2:34 AM 17.6 °F 10.7 °F 11.7 °F 78% 30.14 in 10.0 mi ENE 4.6 mph - N/A   Overcast
2:54 AM 17.6 °F 10.7 °F 11.1 °F 76% 30.14 in 10.0 mi ENE 4.6 mph - N/A   Overcast
3:14 AM 17.8 °F 12.5 °F 11.7 °F 77% 30.13 in 7.0 mi East 3.5 mph - N/A Snow Light Snow
3:34 AM 17.6 °F 12.3 °F 11.1 °F 76% 30.12 in 7.0 mi ENE 3.5 mph - N/A Snow Light Snow
3:54 AM 17.4 °F - 11.7 °F 78% 30.12 in 10.0 mi Calm Calm - N/A   Overcast
4:14 AM 17.6 °F - 11.5 °F 77% 30.11 in 10.0 mi Calm Calm - N/A   Overcast
4:34 AM 17.6 °F 10.7 °F 12.2 °F 79% 30.10 in 10.0 mi ENE 4.6 mph - N/A   Overcast
4:54 AM 17.6 °F - 12.2 °F 79% 30.10 in 10.0 mi Calm Calm - N/A   Overcast
5:14 AM 17.6 °F 12.3 °F 12.2 °F 79% 30.09 in 5.0 mi NE 3.5 mph - N/A Snow Light Snow
5:34 AM 17.6 °F - 12.9 °F 82% 30.08 in 4.0 mi Calm Calm - N/A Snow Light Snow
5:54 AM 17.6 °F 12.3 °F 14.0 °F 86% 30.09 in 2.0 mi North 3.5 mph - N/A Snow Light Snow
6:14 AM 17.6 °F 12.3 °F 14.7 °F 88% 30.09 in 1.5 mi North 3.5 mph - N/A Snow Light Snow
6:34 AM 17.4 °F - 14.9 °F 90% 30.09 in 1.8 mi Calm Calm - N/A Snow Light Snow
6:54 AM 17.2 °F 11.9 °F 15.1 °F 91% 30.09 in 1.5 mi NNW 3.5 mph - N/A Snow Light Snow
7:14 AM 17.2 °F - 15.4 °F 93% 30.08 in 1.0 mi Calm Calm - N/A Snow Snow
7:34 AM 17.4 °F 9.1 °F 14.9 °F 90% 30.08 in 1.2 mi ESE 5.8 mph - N/A Snow Light Snow
7:54 AM 17.6 °F 9.3 °F 14.9 °F 89% 30.09 in 1.8 mi SE 5.8 mph - N/A Snow Light Snow
8:14 AM 18.0 °F 11.1 °F 14.5 °F 86% 30.09 in 2.5 mi SSE 4.6 mph - N/A Snow Light Snow
8:34 AM 18.5 °F 13.3 °F 14.5 °F 85% 30.09 in 2.5 mi ESE 3.5 mph - N/A Snow Light Snow
8:54 AM 19.0 °F 10.0 °F 14.5 °F 83% 30.09 in 2.0 mi ESE 6.9 mph - N/A Snow Light Snow
9:14 AM 18.5 °F 11.7 °F 14.2 °F 83% 30.09 in 2.5 mi SE 4.6 mph - N/A Snow Light Snow
9:34 AM 19.4 °F 12.8 °F 14.7 °F 82% 30.10 in 1.8 mi SE 4.6 mph - N/A Snow Light Snow
9:54 AM 19.4 °F 10.4 °F 14.9 °F 83% 30.10 in 2.0 mi ESE 6.9 mph - N/A Snow Light Snow
10:14 AM 19.2 °F 9.3 °F 14.2 °F 81% 30.10 in 2.0 mi ESE 8.1 mph - N/A Snow Light Snow
10:27 AM 19.4 °F 8.6 °F 14.5 °F 81% 30.10 in 2.5 mi ESE 9.2 mph - N/A Snow Light Snow
11:14 AM 20.7 °F 14.2 °F 14.7 °F 78% 30.09 in 3.0 mi East 4.6 mph - N/A Snow Light Snow
11:34 AM 21.2 °F 12.6 °F 14.9 °F 77% 30.08 in 4.0 mi ESE 6.9 mph - N/A Snow Light Snow
11:54 AM 21.2 °F 13.6 °F 15.3 °F 78% 30.07 in 3.0 mi East 5.8 mph - N/A Snow Light Snow
12:14 PM 21.2 °F 16.4 °F 15.4 °F 78% 30.06 in 1.5 mi ESE 3.5 mph - N/A Snow Light Snow
12:34 PM 21.2 °F - 16.5 °F 82% 30.05 in 1.2 mi Calm Calm - N/A Snow Light Snow
12:54 PM 21.0 °F - 15.6 °F 80% 30.05 in 1.5 mi Calm Calm - N/A Snow Light Snow
1:14 PM 21.0 °F 16.2 °F 15.3 °F 78% 30.05 in 2.0 mi NW 3.5 mph - N/A Snow Light Snow
1:34 PM 21.0 °F 16.2 °F 16.7 °F 83% 30.03 in 1.8 mi WNW 3.5 mph - N/A Snow Light Snow
1:54 PM 20.5 °F - 16.2 °F 83% 30.03 in 1.5 mi Calm Calm - N/A Snow Light Snow
2:14 PM 21.2 °F 14.9 °F 18.1 °F 88% 30.03 in 0.8 mi NE 4.6 mph - N/A Snow Light Snow
2:34 PM 20.7 °F 9.5 °F 17.6 °F 88% 30.03 in 1.0 mi NNE 10.4 mph - N/A Snow Light Snow
2:54 PM 19.6 °F 8.9 °F 16.7 °F 89% 30.03 in 1.0 mi North 9.2 mph - N/A Snow Light Snow
3:14 PM 19.0 °F 7.5 °F 16.5 °F 90% 30.05 in 1.0 mi North 10.4 mph - N/A Snow Light Snow
3:34 PM 18.9 °F 8.0 °F 16.3 °F 90% 30.05 in 1.0 mi NNE 9.2 mph - N/A Snow Light Snow
3:54 PM 18.3 °F 10.2 °F 15.8 °F 90% 30.05 in 1.2 mi NNE 5.8 mph - N/A Snow Light Snow
4:14 PM 18.1 °F 8.9 °F 15.8 °F 91% 30.07 in 1.5 mi North 6.9 mph - N/A Snow Light Snow
4:34 PM 18.3 °F 9.1 °F 16.2 °F 91% 30.07 in 1.8 mi North 6.9 mph - N/A Snow Light Snow
4:54 PM 18.0 °F 7.7 °F 16.0 °F 92% 30.08 in 1.2 mi North 8.1 mph - N/A Snow Light Snow
5:14 PM 17.4 °F 9.1 °F 15.6 °F 93% 30.08 in 1.0 mi NNE 5.8 mph - N/A Snow Light Snow
5:34 PM 17.4 °F 8.0 °F 15.6 °F 93% 30.08 in 2.0 mi NNE 6.9 mph - N/A Snow Light Snow
5:54 PM 16.7 °F 9.6 °F 14.9 °F 93% 30.09 in 3.0 mi NE 4.6 mph - N/A Snow Light Snow
6:14 PM 16.5 °F 9.4 °F 14.4 °F 91% 30.09 in 2.5 mi NE 4.6 mph - N/A Snow Light Snow
6:34 PM 16.5 °F 8.1 °F 14.5 °F 92% 30.11 in 2.0 mi NNE 5.8 mph - N/A Snow Light Snow
6:54 PM 15.8 °F 5.1 °F 14.0 °F 93% 30.11 in 1.8 mi NNE 8.1 mph - N/A Snow Light Snow
7:14 PM 15.8 °F 6.1 °F 13.8 °F 92% 30.12 in 3.0 mi North 6.9 mph - N/A Snow Light Snow
7:34 PM 15.4 °F 5.6 °F 13.6 °F 93% 30.12 in 2.5 mi North 6.9 mph - N/A Snow Light Snow
7:54 PM 14.9 °F 7.5 °F 13.1 °F 93% 30.13 in 4.0 mi North 4.6 mph - N/A Snow Light Snow
8:14 PM 14.5 °F - 12.7 °F 93% 30.13 in 7.0 mi Calm Calm - N/A   Scattered Clouds
8:34 PM 14.4 °F - 12.6 °F 93% 30.14 in 10.0 mi Calm Calm - N/A   Mostly Cloudy
8:54 PM 13.8 °F - 12.0 °F 93% 30.13 in 10.0 mi Calm Calm - N/A   Scattered Clouds
9:14 PM 12.0 °F - 10.2 °F 92% 30.14 in 10.0 mi Calm Calm - N/A   Scattered Clouds
9:34 PM 9.7 °F - 7.7 °F 92% 30.14 in 10.0 mi Calm Calm - N/A   Scattered Clouds
9:54 PM 9.1 °F - 7.3 °F 92% 30.14 in 7.0 mi Calm Calm - N/A   Scattered Clouds
10:14 PM 6.3 °F -0.7 °F 3.7 °F 89% 30.15 in 10.0 mi NE 3.5 mph - N/A   Mostly Cloudy
10:34 PM 8.2 °F - 6.3 °F 92% 30.16 in 10.0 mi Calm Calm - N/A   Overcast
10:54 PM 10.6 °F 2.5 °F 8.8 °F 92% 30.17 in 10.0 mi North 4.6 mph - N/A   Overcast
11:14 PM 11.3 °F 3.3 °F 9.3 °F 92% 30.17 in 10.0 mi North 4.6 mph - N/A Snow Light Snow
11:34 PM 11.3 °F 5.1 °F 9.5 °F 92% 30.18 in 5.0 mi North 3.5 mph - N/A Snow Light Snow
11:54 PM 11.5 °F - 9.7 °F 92% 30.17 in 4.0 mi Calm Calm - N/A Snow Light Snow